| time (UTC) | temp F | wind direction | speed knots | gust knots | rain 1hr in | rain 24hr in | rain mn in | humidity % | barometer mb |
| 20260903163013 | 87 | 360 | 1.7 | 7.0 | 0.00 | 0.00 | 0.00 | 43 | 1014.3 |
| 20260903161504 | 86 | 184 | 1.7 | 7.0 | 0.00 | 0.00 | 0.00 | 44 | 1014.2 |
| 20260903160008 | 85 | 208 | 2.6 | 5.2 | 0.00 | 0.00 | 0.00 | 47 | 1014.1 |
| 20260903154513 | 85 | 217 | 2.6 | 7.8 | 0.00 | 0.00 | 0.00 | 46 | 1014.4 |
| 20260903153013 | 84 | 239 | 2.6 | 7.0 | 0.00 | 0.00 | 0.00 | 47 | 1014.2 |
| 20260903151523 | 82 | 248 | 2.6 | 7.0 | 0.00 | 0.00 | 0.00 | 50 | 1014.1 |
| 20260903150009 | 81 | 258 | 4.3 | 11.3 | 0.00 | 0.00 | 0.00 | 52 | 1014.0 |
| 20260903144507 | 79 | 360 | 2.6 | 9.6 | 0.00 | 0.00 | 0.00 | 55 | 1014.0 |
| 20260903143020 | 78 | 360 | 2.6 | 8.7 | 0.00 | 0.00 | 0.00 | 55 | 1014.2 |
| 20260903141517 | 80 | 360 | 2.6 | 9.6 | 0.00 | 0.00 | 0.00 | 54 | 1014.4 |
| 20260903140028 | 78 | 202 | 3.5 | 10.4 | 0.00 | 0.00 | 0.00 | 59 | 1014.2 |
| 20260903134504 | 76 | 360 | 3.5 | 8.7 | 0.00 | 0.00 | 0.00 | 63 | 1014.1 |
| 20260903133012 | 74 | 171 | 2.6 | 8.7 | 0.00 | 0.00 | 0.00 | 68 | 1014.0 |
| 20260903131515 | 73 | 360 | 3.5 | 7.8 | 0.00 | 0.00 | 0.00 | 68 | 1014.0 |
| 20260903130022 | 73 | 194 | 3.5 | 9.6 | 0.00 | 0.00 | 0.00 | 68 | 1013.8 |
| 20260903124529 | 72 | 360 | 3.5 | 8.7 | 0.00 | 0.00 | 0.00 | 71 | 1013.7 |
| 20260903123006 | 71 | 360 | 1.7 | 8.7 | 0.00 | 0.00 | 0.00 | 71 | 1013.7 |
| 20260903121514 | 71 | 234 | 2.6 | 7.8 | 0.00 | 0.00 | 0.00 | 71 | 1013.6 |
| 20260903120020 | 71 | 215 | 1.7 | 7.0 | 0.00 | 0.00 | 0.00 | 71 | 1013.7 |
| 20260903114528 | 71 | 360 | 2.6 | 6.1 | 0.00 | 0.00 | 0.00 | 70 | 1013.8 |
| 20260903113035 | 72 | 195 | 3.5 | 7.8 | 0.00 | 0.00 | 0.00 | 69 | 1013.5 |
| 20260903111510 | 72 | 360 | 2.6 | 8.7 | 0.00 | 0.00 | 0.00 | 68 | 1013.4 |
| 20260903110019 | 73 | 360 | 3.5 | 7.8 | 0.00 | 0.00 | 0.00 | 67 | 1013.4 |
| 20260903104527 | 74 | 196 | 3.5 | 8.7 | 0.00 | 0.00 | 0.00 | 65 | 1013.4 |
| 20260903103030 | 74 | 173 | 3.5 | 10.4 | 0.00 | 0.00 | 0.00 | 63 | 1013.5 |
| 20260903101515 | 75 | 228 | 5.2 | 9.6 | 0.00 | 0.00 | 0.00 | 62 | 1013.5 |
| 20260903100018 | 75 | 360 | 4.3 | 9.6 | 0.00 | 0.00 | 0.00 | 61 | 1013.6 |
| 20260903094503 | 75 | 360 | 4.3 | 10.4 | 0.00 | 0.00 | 0.00 | 60 | 1013.6 |
| 20260903093004 | 75 | 360 | 4.3 | 9.6 | 0.00 | 0.00 | 0.00 | 59 | 1013.7 |
| 20260903091508 | 76 | 360 | 3.5 | 9.6 | 0.00 | 0.00 | 0.00 | 58 | 1013.7 |
| 20260903090027 | 76 | 172 | 4.3 | 9.6 | 0.00 | 0.00 | 0.00 | 57 | 1013.8 |
| 20260903084524 | 77 | 161 | 3.5 | 10.4 | 0.00 | 0.00 | 0.00 | 56 | 1013.8 |
| 20260903083005 | 77 | 360 | 4.3 | 9.6 | 0.00 | 0.00 | 0.00 | 55 | 1013.9 |
| 20260903081507 | 77 | 360 | 3.5 | 10.4 | 0.00 | 0.00 | 0.00 | 55 | 1013.8 |
| 20260903080019 | 77 | 360 | 3.5 | 9.6 | 0.00 | 0.00 | 0.00 | 54 | 1013.8 |
| 20260903074521 | 77 | 360 | 4.3 | 10.4 | 0.00 | 0.00 | 0.00 | 54 | 1013.8 |
| 20260903073032 | 77 | 360 | 4.3 | 9.6 | 0.00 | 0.00 | 0.00 | 54 | 1013.8 |
| 20260903071511 | 77 | 360 | 4.3 | 9.6 | 0.00 | 0.00 | 0.00 | 55 | 1013.8 |
| 20260903070012 | 76 | 360 | 4.3 | 8.7 | 0.00 | 0.00 | 0.00 | 57 | 1013.8 |
| 20260903064516 | 76 | 360 | 4.3 | 8.7 | 0.00 | 0.00 | 0.00 | 58 | 1013.8 |
| 20260903063023 | 76 | 182 | 4.3 | 7.8 | 0.00 | 0.00 | 0.00 | 58 | 1013.8 |
| 20260903061541 | 76 | 360 | 3.5 | 8.7 | 0.00 | 0.00 | 0.00 | 59 | 1013.8 |
| 20260903060013 | 76 | 179 | 3.5 | 7.0 | 0.00 | 0.00 | 0.00 | 60 | 1013.7 |
| 20260903054514 | 76 | 360 | 3.5 | 7.0 | 0.00 | 0.00 | 0.00 | 58 | 1013.6 |
| 20260903053024 | 78 | 159 | 3.5 | 8.7 | 0.00 | 0.00 | 0.00 | 56 | 1013.5 |
| 20260903051528 | 78 | 360 | 3.5 | 7.8 | 0.00 | 0.00 | 0.00 | 56 | 1013.7 |
| 20260903050037 | 76 | 360 | 2.6 | 7.0 | 0.00 | 0.00 | 0.00 | 59 | 1013.8 |
| 20260903044516 | 76 | 360 | 2.6 | 5.2 | 0.00 | 0.00 | 0.00 | 60 | 1013.8 |
| 20260903043021 | 76 | 155 | 2.6 | 5.2 | 0.00 | 0.00 | 0.00 | 60 | 1013.7 |
| 20260903041536 | 77 | 173 | 1.7 | 4.3 | 0.00 | 0.00 | 0.00 | 58 | 1013.7 |
| 20260903040034 | 78 | 360 | 2.6 | 7.0 | 0.00 | 0.00 | 0.00 | 56 | 1013.8 |
| 20260903034542 | 80 | 175 | 1.7 | 4.3 | 0.00 | 0.00 | 0.00 | 54 | 1013.8 |
| 20260903033021 | 80 | 199 | 1.7 | 4.3 | 0.00 | 0.00 | 0.00 | 54 | 1013.8 |
| 20260903031523 | 80 | 185 | 1.7 | 4.3 | 0.00 | 0.00 | 0.00 | 53 | 1013.7 |
| 20260903030028 | 82 | 192 | 0.9 | 2.6 | 0.00 | 0.00 | 0.00 | 51 | 1013.5 |
| 20260903024533 | 83 | 360 | 1.7 | 4.3 | 0.00 | 0.00 | 0.00 | 49 | 1013.3 |
| 20260903023029 | 84 | 360 | 1.7 | 7.8 | 0.00 | 0.00 | 0.00 | 48 | 1013.2 |
| 20260903023003 | 84 | 190 | 1.7 | 7.8 | 0.00 | 0.00 | 0.00 | 48 | 1013.2 |
| 20260903021506 | 84 | 196 | 1.7 | 4.3 | 0.00 | 0.00 | 0.00 | 48 | 1013.0 |
| 20260903020003 | 84 | 360 | 1.7 | 4.3 | 0.00 | 0.00 | 0.00 | 48 | 1012.9 |
| 20260903014509 | 84 | 180 | 0.9 | 2.6 | 0.00 | 0.00 | 0.00 | 47 | 1012.7 |
| 20260903013015 | 87 | 228 | 0.9 | 4.3 | 0.00 | 0.00 | 0.00 | 44 | 1012.6 |
| 20260903011503 | 89 | 180 | 1.7 | 3.5 | 0.00 | 0.00 | 0.00 | 41 | 1012.5 |
| 20260903010007 | 90 | 360 | 1.7 | 5.2 | 0.00 | 0.00 | 0.00 | 39 | 1012.5 |
| 20260903004504 | 92 | 360 | 2.6 | 7.8 | 0.00 | 0.00 | 0.00 | 37 | 1012.5 |
| 20260903003011 | 93 | 202 | 4.3 | 10.4 | 0.00 | 0.00 | 0.00 | 35 | 1012.4 |
| 20260903001517 | 94 | 173 | 4.3 | 11.3 | 0.00 | 0.00 | 0.00 | 34 | 1012.3 |
| 20260903000004 | 95 | 148 | 3.5 | 10.4 | 0.00 | 0.00 | 0.00 | 33 | 1012.3 |
| 20260902234504 | 96 | 207 | 6.1 | 10.4 | 0.00 | 0.00 | 0.00 | 32 | 1012.2 |
| 20260902233010 | 96 | 360 | 5.2 | 9.6 | 0.00 | 0.00 | 0.00 | 32 | 1012.2 |
| 20260902231518 | 98 | 210 | 5.2 | 9.6 | 0.00 | 0.00 | 0.00 | 30 | 1012.3 |
| 20260902230004 | 98 | 360 | 0.9 | 8.7 | 0.00 | 0.00 | 0.00 | 30 | 1012.2 |
| 20260902224506 | 98 | 151 | 2.6 | 12.2 | 0.00 | 0.00 | 0.00 | 30 | 1012.3 |
| 20260902223008 | 98 | 251 | 2.6 | 7.0 | 0.00 | 0.00 | 0.00 | 30 | 1012.4 |
| 20260902221516 | 98 | 196 | 4.3 | 13.0 | 0.00 | 0.00 | 0.00 | 29 | 1012.4 |
| 20260902220016 | 99 | 360 | 2.6 | 11.3 | 0.00 | 0.00 | 0.00 | 31 | 1012.5 |
| 20260902214504 | 98 | 181 | 5.2 | 9.6 | 0.00 | 0.00 | 0.00 | 31 | 1012.5 |
| 20260902213022 | 98 | 185 | 4.3 | 11.3 | 0.00 | 0.00 | 0.00 | 32 | 1012.9 |
| 20260902211510 | 97 | 213 | 5.2 | 13.9 | 0.00 | 0.00 | 0.00 | 31 | 1013.2 |
| 20260902210026 | 98 | 210 | 5.2 | 11.3 | 0.00 | 0.00 | 0.00 | 32 | 1013.4 |
| 20260902204526 | 98 | 211 | 7.0 | 11.3 | 0.00 | 0.00 | 0.00 | 31 | 1013.5 |
| 20260902203005 | 98 | 213 | 2.6 | 13.0 | 0.00 | 0.00 | 0.00 | 29 | 1013.6 |
| 20260902201508 | 98 | 229 | 4.3 | 9.6 | 0.00 | 0.00 | 0.00 | 30 | 1013.7 |
| 20260902200016 | 98 | 210 | 2.6 | 7.8 | 0.00 | 0.00 | 0.00 | 27 | 1014.0 |
| 20260902194523 | 98 | 208 | 5.2 | 10.4 | 0.00 | 0.00 | 0.00 | 27 | 1014.2 |
| 20260902193025 | 97 | 242 | 3.5 | 8.7 | 0.00 | 0.00 | 0.00 | 29 | 1014.3 |
| 20260902191516 | 96 | 281 | 2.6 | 10.4 | 0.00 | 0.00 | 0.00 | 31 | 1014.4 |
| 20260902190017 | 96 | 253 | 4.3 | 9.6 | 0.00 | 0.00 | 0.00 | 33 | 1014.6 |
| 20260902184528 | 95 | 283 | 4.3 | 9.6 | 0.00 | 0.00 | 0.00 | 34 | 1015.1 |
| 20260902183028 | 94 | 360 | 3.5 | 12.2 | 0.00 | 0.00 | 0.00 | 36 | 1015.4 |
| 20260902181528 | 94 | 360 | 2.6 | 9.6 | 0.00 | 0.00 | 0.00 | 37 | 1015.5 |
| 20260902180015 | 93 | 360 | 5.2 | 9.6 | 0.00 | 0.00 | 0.00 | 38 | 1015.7 |
| 20260902174518 | 92 | 222 | 4.3 | 11.3 | 0.00 | 0.00 | 0.00 | 39 | 1015.9 |
| 20260902173024 | 92 | 360 | 2.6 | 13.9 | 0.00 | 0.00 | 0.00 | 40 | 1016.2 |
| 20260902171506 | 91 | 360 | 5.2 | 10.4 | 0.00 | 0.00 | 0.00 | 41 | 1016.2 |
| 20260902170005 | 90 | 360 | 3.5 | 10.4 | 0.00 | 0.00 | 0.00 | 41 | 1016.4 |
| 20260902164506 | 90 | 219 | 5.2 | 10.4 | 0.00 | 0.00 | 0.00 | 41 | 1016.4 |